Evansville, IN

11:07 AM CDT on July 23, 2017 (GMT -0500)
Evansville Regional

Weather History for KEVV - March, 2013

Change the Weather History Date:

Sunday, March 17, 2013

  Actual Average Record
Temperature  
Mean Temperature 38 °F 46 °F  
Max Temperature 40 °F 57 °F 80 °F (2012)
Min Temperature 36 °F 36 °F 13 °F (1900)
Degree Days  
Heating Degree Days 27 19  
Month to date heating degree days 426 363  
Since 1 July heating degree days 3789 3937  
Cooling Degree Days 0 0  
Month to date cooling degree days 0 0  
Year to date cooling degree days 0 0  
Moisture  
Dew Point 34 °F    
Average Humidity 81    
Maximum Humidity 92    
Minimum Humidity 70    
Precipitation  
Precipitation 1.97 in 0.15 in 2.92 in (1951)
Month to date precipitation 2.42 2.18  
Year to date precipitation 11.95 8.45  
Snow  
Snow 0.00 in 0.00 in 8.30 in (1970)
Month to date snowfall T 0.7  
Since 1 July snowfall 12.3 11.4  
Snow Depth 0.00 in    
Sea Level Pressure  
Sea Level Pressure 30.02 in    
Wind  
Wind Speed 10 mph (NE)    
Max Wind Speed 18 mph    
Max Gust Speed 23 mph    
Visibility 5 miles    
Events Rain    
T = Trace of Precipitation, MM = Missing Value Source: NWS Daily Summary

Daily Weather History Graph

Daily Weather History Graph

Search for Another Location

Airport or City:

Trip Planner

Search our weather history database for the weather conditions in past years. The results will help you decide how hot, cold, wet, or windy it might be!

Date:

Astronomy

Mar. 17, 2013 Rise Set
Actual Time 6:57 AM CDT 6:59 PM CDT
Civil Twilight 6:31 AM CDT 7:25 PM CDT
Nautical Twilight 6:01 AM CDT 7:56 PM CDT
Astronomical Twilight 5:30 AM CDT 8:27 PM CDT
Moon 10:15 AM CDT (3/17) 12:02 AM CDT (3/17)
Length of Visible Light 12h 54m
Length of Day
12h 01m
Waxing Crescent, 31% of the Moon is Illuminated
Mar 17
Waxing Crescent
Mar 19
First Quarter
Mar 27
Full
Apr 2
Last Quarter
Apr 10
New

Hourly Weather History & Observations

Time (CDT) Temp. Windchill Dew Point Humidity Pressure Visibility Wind Dir Wind Speed Gust Speed Precip Events Conditions
12:19 AM 39.2 °F 32.0 °F 35.6 °F 87% 30.00 in 8.0 mi NNE 11.5 mph - N/A   Overcast
12:54 AM 39.9 °F 31.4 °F 34.0 °F 79% 29.96 in 9.0 mi NNE 16.1 mph - N/A   Overcast
1:54 AM 39.9 °F - 30.9 °F 70% 30.05 in 10.0 mi Calm Calm - N/A   Overcast
2:54 AM 37.9 °F 32.1 °F 34.0 °F 86% 30.04 in 4.0 mi North 8.1 mph - 0.10 in Rain Light Rain
3:54 AM 37.0 °F 29.8 °F 34.0 °F 89% 30.05 in 4.0 mi North 10.4 mph - 0.09 in Rain Light Rain
4:32 AM 37.4 °F 31.4 °F 33.8 °F 87% 30.06 in 4.0 mi North 8.1 mph - 0.06 in Rain Rain
4:50 AM 37.4 °F 29.8 °F 33.8 °F 87% 30.05 in 4.0 mi North 11.5 mph - 0.09 in Rain Rain
4:54 AM 37.0 °F 31.0 °F 33.1 °F 86% 30.06 in 4.0 mi North 8.1 mph - 0.10 in Rain Rain
5:02 AM 37.4 °F 30.8 °F 33.8 °F 87% 30.06 in 4.0 mi North 9.2 mph - 0.01 in Rain Light Rain
5:13 AM 37.4 °F 31.4 °F 33.8 °F 87% 30.06 in 4.0 mi North 8.1 mph - 0.03 in Rain Light Rain
5:24 AM 37.4 °F 31.4 °F 33.8 °F 87% 30.05 in 4.0 mi NNE 8.1 mph - 0.04 in Rain Rain
5:54 AM 37.0 °F 30.4 °F 33.1 °F 86% 30.06 in 6.0 mi NNE 9.2 mph - 0.05 in Rain Light Rain
6:03 AM 37.4 °F 31.4 °F 33.8 °F 87% 30.06 in 6.0 mi NNE 8.1 mph - 0.00 in Rain Light Rain
6:54 AM 36.0 °F 28.5 °F 33.1 °F 89% 30.09 in 4.0 mi North 10.4 mph - 0.03 in Rain Rain
7:36 AM 35.6 °F 27.1 °F 33.8 °F 93% 30.06 in 2.0 mi NE 12.7 mph - 0.04 in Rain Rain
7:51 AM 35.6 °F 28.6 °F 33.8 °F 93% 30.06 in 3.0 mi NE 9.2 mph - 0.07 in Rain Rain
7:54 AM 36.0 °F 28.5 °F 33.1 °F 89% 30.07 in 3.0 mi NE 10.4 mph - 0.07 in Rain Rain
8:14 AM 35.6 °F 27.1 °F 33.8 °F 93% 30.07 in 2.5 mi NNE 12.7 mph - 0.04 in Rain Rain
8:23 AM 35.6 °F 27.1 °F 33.8 °F 93% 30.09 in 3.0 mi North 12.7 mph - 0.05 in Rain Rain
8:54 AM 36.0 °F 27.5 °F 33.1 °F 89% 30.08 in 2.5 mi NE 12.7 mph - 0.09 in Rain Rain
9:06 AM 35.6 °F 28.0 °F 33.8 °F 93% 30.08 in 3.0 mi NE 10.4 mph - 0.03 in Rain Rain
9:54 AM 36.0 °F 30.3 °F 33.1 °F 89% 30.10 in 3.0 mi NE 6.9 mph - 0.12 in Rain Heavy Rain
10:13 AM 35.6 °F 28.6 °F 33.8 °F 93% 30.08 in 2.0 mi ENE 9.2 mph - 0.07 in Rain Heavy Rain
10:25 AM 35.6 °F 27.5 °F 33.8 °F 93% 30.08 in 3.0 mi ENE 11.5 mph - 0.11 in Rain Rain
10:49 AM 35.6 °F 28.0 °F 33.8 °F 93% 30.07 in 2.0 mi NE 10.4 mph - 0.27 in Rain Heavy Rain
10:54 AM 36.0 °F 29.0 °F 33.1 °F 89% 30.08 in 3.0 mi ENE 9.2 mph - 0.29 in Rain Rain
11:09 AM 37.4 °F 30.3 °F 33.8 °F 87% 30.07 in 6.0 mi NE 10.4 mph - 0.02 in Rain Light Rain
11:54 AM 37.0 °F 31.0 °F 34.0 °F 89% 30.09 in 5.0 mi ENE 8.1 mph - 0.09 in Rain Rain
12:54 PM 37.0 °F 30.4 °F 34.0 °F 89% 30.08 in 4.0 mi NE 9.2 mph - 0.18 in Rain Rain
1:54 PM 37.9 °F 29.6 °F 35.1 °F 89% 30.02 in 8.0 mi ENE 13.8 mph - 0.03 in Rain Light Rain
2:54 PM 39.0 °F 31.0 °F 36.0 °F 89% 30.00 in 10.0 mi ENE 13.8 mph - 0.00 in   Overcast
3:54 PM 39.9 °F 32.9 °F 35.1 °F 83% 29.97 in 10.0 mi ENE 11.5 mph 20.7 mph N/A   Overcast
4:54 PM 39.0 °F 32.8 °F 35.1 °F 86% 29.99 in 6.0 mi NE 9.2 mph - 0.00 in Rain Rain
5:41 PM 37.4 °F 29.3 °F 35.6 °F 93% 29.95 in 8.0 mi ENE 12.7 mph - 0.07 in Rain Light Rain
5:50 PM 37.4 °F 29.3 °F 35.6 °F 93% 29.95 in 5.0 mi NE 12.7 mph - 0.08 in Rain Rain
5:54 PM 37.9 °F 29.2 °F 35.1 °F 89% 29.95 in 5.0 mi ENE 15.0 mph - 0.08 in Rain Light Rain
6:20 PM 37.4 °F 29.3 °F 35.6 °F 93% 29.96 in 9.0 mi NE 12.7 mph - 0.01 in Rain Light Rain
6:41 PM 37.4 °F 29.8 °F 35.6 °F 93% 29.95 in 3.0 mi NE 11.5 mph - 0.07 in Rain Heavy Rain
6:54 PM 37.9 °F 30.0 °F 34.0 °F 86% 29.95 in 2.0 mi ENE 12.7 mph - 0.11 in Rain Rain
7:54 PM 37.0 °F 28.5 °F 34.0 °F 89% 29.91 in 4.0 mi ENE 13.8 mph 19.6 mph 0.06 in Rain Light Rain
8:54 PM 37.9 °F 29.6 °F 35.1 °F 89% 29.88 in 3.0 mi ENE 13.8 mph 21.9 mph 0.15 in Rain Heavy Rain
9:54 PM 37.9 °F 33.5 °F 35.1 °F 89% 29.88 in 4.0 mi East 5.8 mph 19.6 mph 0.27 in Rain Heavy Rain
10:54 PM 37.9 °F 34.4 °F 35.1 °F 89% 29.87 in 10.0 mi East 4.6 mph - 0.04 in Rain Light Rain
11:54 PM 39.0 °F 33.4 °F 36.0 °F 89% 29.84 in 10.0 mi NE 8.1 mph - 0.02 in   Overcast